Weather in Biograd na Moru

Croatia     43°56′26″N   15°26′58″E
В апреле 2022 года жителям России запретили посещать сайт meteo.paraplan.net по решению Генеральной прокуратуры. Аудитория сайта уменьшилась в 10 раз. Владельцы сайта не видят смысла в поддержке погодного сервера в таких условиях. Сайт будет закрыт в октябре.
temp.,
°C
wind,
m/s
gust,
m/s
humid.,
%
clouds,
%
prec.,
mm/h
press.,
hPa
HPBL,
m
25 september, sun
sun2523:00+17ese71151100 0.0 1017569
02:00+17ese81359100 0.0 1016829
05:00+17se91460100 0.1 1015986
08:00+16se111482100 1.4 1015996
11:00+15ese81389100 9.3 1015840
14:00+17se81081100 10.4 1014747
17:00+16ese5891100 0.9 1013444
20:00+18sse8119099 3.7 1013706
26 september, mon
mon2623:00+18se61187100 1.2 1013577
02:00+17se61292100 4.2 1012762
05:00+18se6109226 2.8 1010414
08:00+18ese4893100 10.9 1009336
11:00+20sse6883100 7.6 1009487
14:00+17nw4596100 14.3 1008226
17:00+16ne2396100 12.5 1006167
20:00+16ese3495100 16.3 1006200
27 september, tue
tue2723:00+16ene239349 2.7 1005100
02:00+14ne11921 3.4 100415
05:00+14nne2288100 0.1 100315
08:00+16ne228093 0.1 100235
11:00+17nne127584 0.6 100395
14:00+20wnw226068 2.5 1003455
17:00+18ssw127174 1.1 100261
20:00+17ese227485 2.6 100349
28 september, wed
wed2823:00+16ese358353 1.1 100497
02:00+15e228498 2.0 100350
05:00+14nne238886 0.6 100392
08:00+16ene22805 0.9 100379
11:00+20se3363100 0.1 1003701
14:00+20s5563100 0.3 1003905
17:00+20s3466100 0.1 1002434
20:00+17se5981100 0.3 1002282
29 september, thu
thu2923:00+17e368047 0.4 1002193
02:00+16e119290 2.7 100331
05:00+16e2289100 0.4 100218
08:00+16ese2489100 2.1 1003114
11:00+21sse576911 2.5 1004629
14:00+22sse7761100 4.1 1004877
17:00+21sse697097 1.4 1005494
20:00+19sse81178100 4.6 1006457